sat.trackr.live / text

‹ back to catalog

STARLINK-4202

NORAD 52848 · 2022-062U

PAYLOAD ACTIVE UNKNOWN

§ Identity

Operator
Country
US
Launch date
2022-06-17
Launch site
AFETR
Launch vehicle
Mass (kg)
RCS (m²)

Purposes: comms

External: N2YO · Heavens-Above · Gunter

§ Orbital elements

Epoch: 2026-05-25T04:08:46.031136Z

Period
95.44 min
Inclination
53.2118°
Eccentricity
0.0001458
Mean motion
15.08831574 rev/d
Perigee alt
538.8 km
Apogee alt
540.8 km
Semi-major
6,917.9 km
B*
1.6881e-5
RAAN
50.7742°
Arg perigee
93.5723°
Mean anomaly
266.5436°
Rev number
21,733

§ Raw data

STARLINK-42021 52848U 22062U   26145.17275499 -.00000019  00000+0  16881-4 0  99992 52848  53.2118  50.7742 0001458  93.5723 266.5436 15.08831574217331

JSON: /api/v1/satellites/52848 · /tle

For live sub-satellite position, see the globe view (requires WebGL).

§ Visibility from observer

Set your observer location to see the next 7 days of passes ≥ 10°. The values pass through the URL so the page stays shareable.

No JS? Fill the form by hand. The geolocation button needs JavaScript.